Hourly Data Report for January 28, 2012

HALIFAX STANFIELD INT'L A
NOVA SCOTIA

44°52'48.060" N
63°30'00.050" W
145.40 m
8202250
71395
YHZ

Download Data

Hourly Data (January 2012)
Hourly Data Report for January 28, 2012
TIME
LST
Temp Definition
°C
Dew Point Definition
°C
Rel Hum Definition
%
Precip. Amount Definition
mm

Wind Dir Definition
10's deg

Wind Spd Definition
km/h
Visibility Definition
km
Stn Press Definition
kPa
Hmdx Definition


Wind Chill Definition


Weather Definition


00:00 2.3 2.1 99   11 33 4.8 97.09     Rain,Fog
01:00 3.3 3.3 100   15 19 2.4 97.06     Rain,Fog
02:00 3.5 3.5 100   15 19 0.4 96.94     Fog
03:00 5.7 5.7 100   19 24 0.4 96.87     Fog
04:00 6.0 6.0 100   22 19 0.4 96.83     Fog
05:00 6.0 6.0 100   26 26 24.1 96.93     Cloudy
06:00 2.5 2.2 98   29 44 24.1 97.20     Cloudy
07:00 0.5 -0.9 90   29 33 24.1 97.44     Cloudy
08:00 -0.1 -2.1 86   29 50 24.1 97.68   -8 Mostly Cloudy
09:00 -0.7 -3.3 83   30 46 24.1 97.84   -9 Mostly Cloudy
10:00 -0.7 -3.7 80   31 39 24.1 98.15   -8 Cloudy
11:00 -0.8 -4.3 77   30 54 24.1 98.31   -10 Cloudy
12:00 -0.7 -4.5 75   31 52 24.1 98.51   -9 Cloudy
13:00 -0.2 -5.1 69   30 54 24.1 98.65   -9 Mostly Cloudy
14:00 -0.3 -5.3 69   31 44 24.1 98.83   -8 Cloudy
15:00 -0.5 -5.5 69   30 39 24.1 99.06   -8 Mostly Cloudy
16:00 -0.7 -5.6 69   31 37 24.1 99.20   -8 Mostly Cloudy
17:00 -0.9 -5.4 71   31 30 24.1 99.34   -8 Mostly Cloudy
18:00 -1.2 -6.0 70   32 20 24.1 99.45   -7 Mostly Cloudy
19:00 -1.5 -5.6 74   30 13 24.1 99.55   -6 Mostly Cloudy
20:00 -1.6 -5.9 72   30 15 24.1 99.63   -6 Mostly Cloudy
21:00 -2.1 -6.2 73   31 7 24.1 99.59   -5 Mostly Cloudy
22:00 -2.7 -5.6 80   29 4 24.1 99.63   -4 Mostly Cloudy
23:00 -3.6 -5.6 86   20 6 24.1 99.60   -6 Mainly Clear

Notes on Data Quality.

Legend

  • E = Estimated
  • M = Missing
  • NA = Not Available*
  • [empty] = Indicates an unobserved value
Date modified: